User: anonymous   Login
Location: Unspecified
(0.0000°N, 0.0000°E)
Time: 11:52:42
(UTC+02:00)
Language:

Meteor 2-8 Rocket - Orbit

View from above orbital plane
View from above orbital plane
View from above satellite
View from above satellite

Ground track
Ground track

The orbit data is extracted from the following two-line orbital elements,

1 13114U 82025B   18173.76953512  .00000008  00000-0 -61800-5 0  9994
2 13114  82.5409 267.8755 0014450 184.1816 286.2760 13.84666622831695
Epoch (UTC): 22 June 2018 18:28:07
Eccentricity: 0.0014450
inclination: 82.5409°
perigee height: 937 km
apogee height: 958 km
right ascension of ascending node: 267.8755°
argument of perigee: 184.1816°
revolutions per day: 13.84666622
mean anomaly at epoch: 286.2760°
orbit number at epoch: 83169

The dashed part of the orbit path shows where the satellite is in the earth's shadow,  

DLR